Regional Weather Roundup
Issued by NWS Cleveland, OH

Home | Current Version | Previous Version | Graphics & Text | Print | Product List | Glossary On
Versions: 1 2 3 4 5 6 7 8 9 10 11 12 13 14 15 16 17 18 19 20 21 22 23 24 25 26 27 28 29 30 31 32 33 34 35 36 37 38 39 40 41 42 43 44 45 46 47 48 49 50
000
ASUS41 KCLE 211610
RWRCLE
OHIO REGIONAL WEATHER ROUNDUP
NATIONAL WEATHER SERVICE WILMINGTON, OH
1100 AM EST SUN JAN 21 2018

NOTE: "FAIR" INDICATES FEW OR NO CLOUDS BELOW 12,000 FEET WITH NO
SIGNIFICANT WEATHER AND/OR OBSTRUCTIONS TO VISIBILITY.

OHZ001>008-015>018-024>027-034-035-043-044-211700-
   NORTHWEST OHIO

CITY           SKY/WX    TMP DP  RH WIND       PRES   REMARKS
DEFIANCE       CLOUDY    40  39  97 S5        30.05F FOG
FINDLAY        FOG       41  39  93 S7        30.06F VSB 1
TOLEDO EXPRESS FOG       40  40 100 VRB3      30.06S VSB 3/4
TOLEDO EXEC    CLOUDY    40  39  97 S7        30.07F FOG
LIMA           CLOUDY    42  42 100 S7        30.06F FOG
$$

OHZ009>014-019>023-028>033-038-089-211700-
   NORTHEAST OHIO

CITY           SKY/WX    TMP DP  RH WIND       PRES   REMARKS
CLE-HOPKINS    CLOUDY    42  41  96 S7        30.13S FOG
CLE-LAKEFRONT  CLOUDY    42  39  89 S6        30.10S FOG
CUY CO. ARPT   FOG       41  34  75 S8        30.10F VSB 1
LORAIN-ELYRIA  FOG       39  36  89 S6        30.10S VSB 1/4
ASHTABULA      CLOUDY    37  37 100 S8        30.11S FOG
AKRON-CANTON   FOG       40  38  93 S8        30.11S VSB 1/8
WOOSTER        FOG       40  40 100 S6        30.10F VSB 1/4
MANSFIELD      CLOUDY    43  43 100 S8        30.08F FOG
YOUNGSTOWN     LGT RAIN  40  39  97 S6        30.11S VSB 1/4
$$

OHZ042-051>053-060>062-070>072-077>081-211700-
  SOUTHWEST OHIO

CITY           SKY/WX    TMP DP  RH WIND       PRES   REMARKS
CINC-COVINGTON CLOUDY    52  44  74 S10       30.11S
CINC-LUNKEN    CLOUDY    53  44  71 SW12      30.13S
HAMILTON       CLOUDY    53  44  71 SW7       30.12R
DAYTON         CLOUDY    47  43  86 SW9       30.10R
WRIGHT-PAT AFB CLOUDY    49  41  73 S7        30.09S
DAYTON GENERAL CLOUDY    50  41  71 SW9       30.09S
WILMINGTON     CLOUDY    47  41  80 S7        30.11S
$$

OHZ036-037-039>041-045>050-054>059-063>069-073>076-082>088-211700-
  CENTRAL AND SOUTHEAST OHIO

CITY           SKY/WX    TMP DP  RH WIND       PRES   REMARKS
COLUMBUS       CLOUDY    45  44  97 S3        30.11F
OSU AIRPORT    CLOUDY    43  41  93 S3        30.10S
BOLTON FIELD   CLOUDY    41  39  93 S6        30.11F
RICKENBACK AFB CLOUDY    44  39  85 S7        30.11S
NEWARK         CLOUDY    41  40  96 CALM      30.12S FOG
MARION         CLOUDY    40  39  97 S6        30.09F FOG
LANCASTER      CLOUDY    46  40  79 S6        30.13S
ZANESVILLE     CLOUDY    43  40  89 S3        30.13S
NEW PHILLY     CLOUDY    40  40 100 SE6       30.14F FOG
$$




USA.gov is the U.S. government's official web portal to all federal, state and local government web resources and services.